Location: Kaseke
(18.0171°S, 31.0526°E)
Time: 12:32:47
(UTC+00:00)

Cosmos 1763 Rocket - Pass Details

Date: 14 July 2020
Orbit: 732 x 781 km, 74.0° (Epoch: 07 August)

Event Time Altitude Azimuth Distance (km) Brightness Sun altitude
Rises 02:41:39 0° 338° (NNW) 3,247 6.7 -24.6°
Reaches altitude 10° 02:44:03 10° 334° (NNW) 2,325 5.9 -24.1°
Maximum altitude 02:49:15 58° 255° (WSW) 910 3.5 -22.9°
Drops below altitude 10° 02:54:29 10° 177° (S) 2,335 5.9 -21.7°
Sets 02:56:55 0° 172° (S) 3,261 6.7 -21.1°
